Location: Kernascl�den
(48.0062°N, 3.3198°W)
Time: 22:30:39
(UTC+00:00)

SL-08 RB Rocket - Pass Details

Date: 21 January 2021
Orbit: 647 x 683 km, 97.8° (Epoch: 04 March)

Event Time Altitude Azimuth Distance (km) Brightness Sun altitude
Exits shadow 18:36:35 29° 65° (ENE) 1,212 4.5 -16.5°
Drops below altitude 10° 18:40:24 10° 7° (N) 2,071 6.1 -17.1°
Sets 18:42:50 0° 356° (N) 2,983 7.0 -17.5°
